GW2742 Weather Reports


time (UTC)temp
C
wind
direction
speed
KPH
gust
KPH
rain 1hr
cm
rain 24hr
cm
rain mn
cm
humidity
%
barometer
mb
20260901040524 14 0 0.0 0.0 0.00 0.00 0.00 45 1015.9
20260901035524 15 0 0.0 0.0 0.00 0.00 0.00 47 1015.9
20260901035024 15 0 0.0 1.6 0.00 0.00 0.00 48 1015.8
20260901034551 15 0 0.0 1.6 0.00 0.00 0.00 47 1015.9
20260901034023 15 0 0.0 1.6 0.00 0.00 0.00 47 1015.8
20260901033524 15 0 0.0 3.2 0.00 0.00 0.00 50 1015.8
20260901033045 16 0 0.0 3.2 0.00 0.00 0.00 51 1015.7
20260901032524 16 51 0.0 3.2 0.00 0.00 0.00 49 1015.7
20260901032028 16 0 0.0 0.0 0.00 0.00 0.00 43 1015.6
20260901031545 16 0 0.0 0.0 0.00 0.00 0.00 44 1015.7
20260901031027 16 0 0.0 0.0 0.00 0.00 0.00 44 1015.6
20260901030524 16 0 0.0 0.0 0.00 0.00 0.00 42 1015.5
20260901030045 17 0 0.0 0.0 0.00 0.00 0.00 41 1015.4
20260901025527 17 0 0.0 0.0 0.00 0.00 0.00 42 1015.1
20260901025025 17 0 0.0 0.0 0.00 0.00 0.00 43 1015.1
20260901024558 17 0 0.0 0.0 0.00 0.00 0.00 43 1015.1
20260901024028 17 0 0.0 0.0 0.00 0.00 0.00 42 1015.1
20260901023526 17 0 0.0 0.0 0.00 0.00 0.00 43 1015.0
20260901023049 17 0 0.0 0.0 0.00 0.00 0.00 39 1015.2
20260901022531 18 0 0.0 0.0 0.00 0.00 0.00 41 1015.0
20260901022027 18 0 0.0 0.0 0.00 0.00 0.00 42 1015.0
20260901021604 18 0 0.0 0.0 0.00 0.00 0.00 41 1015.0
20260901021025 18 0 0.0 0.0 0.00 0.00 0.00 40 1015.2
20260901020527 19 0 0.0 0.0 0.00 0.00 0.00 39 1015.1
20260901020046 20 0 0.0 0.0 0.00 0.00 0.00 38 1015.0
20260901015523 20 0 0.0 0.0 0.00 0.00 0.00 36 1015.2
20260901015025 20 0 0.0 0.0 0.00 0.00 0.00 35 1015.2
20260901014546 21 0 0.0 0.0 0.00 0.00 0.00 36 1015.2
20260901014024 21 0 0.0 0.0 0.00 0.00 0.00 36 1015.2
20260901013527 21 0 0.0 0.0 0.00 0.00 0.00 37 1015.2
20260901013101 21 0 0.0 0.0 0.00 0.00 0.00 35 1015.2
20260901012528 22 0 0.0 0.0 0.00 0.00 0.00 34 1015.2
20260901012029 22 0 0.0 0.0 0.00 0.00 0.00 35 1015.1
20260901011545 22 0 0.0 0.0 0.00 0.00 0.00 35 1015.1
20260901011027 23 0 0.0 0.0 0.00 0.00 0.00 34 1015.1
20260901010525 23 0 0.0 0.0 0.00 0.00 0.00 33 1015.1
20260901010045 23 0 0.0 0.0 0.00 0.00 0.00 32 1015.0
20260901005524 24 0 0.0 0.0 0.00 0.00 0.00 31 1015.0
20260901005027 25 0 0.0 4.8 0.00 0.00 0.00 30 1014.9
20260901004548 25 0 0.0 4.8 0.00 0.00 0.00 29 1014.9
20260901004024 25 33 0.0 6.4 0.00 0.00 0.00 26 1014.9
20260901003524 26 0 1.6 9.7 0.00 0.00 0.00 25 1014.9
20260901003052 26 68 3.2 9.7 0.00 0.00 0.00 26 1015.0
20260901002526 26 30 4.8 9.7 0.00 0.00 0.00 23 1015.2
20260901002027 26 60 3.2 12.9 0.00 0.00 0.00 24 1015.2
20260901001546 26 20 6.4 12.9 0.00 0.00 0.00 24 1015.2
20260901001025 26 10 4.8 11.3 0.00 0.00 0.00 25 1015.1
20260901000524 26 37 4.8 11.3 0.00 0.00 0.00 21 1015.1
20260901000049 26 30 3.2 14.5 0.00 0.00 0.00 20 1015.3
20260831235525 26 28 6.4 14.5 0.00 0.00 0.00 20 1015.1
20260831235028 26 35 8.0 11.3 0.00 0.00 0.00 19 1015.3
20260831234544 26 25 3.2 12.9 0.00 0.00 0.00 22 1015.2
20260831234025 26 59 4.8 12.9 0.00 0.00 0.00 20 1015.4
20260831233528 26 30 6.4 12.9 0.00 0.00 0.00 22 1015.4
20260831233050 26 32 4.8 9.7 0.00 0.00 0.00 21 1015.5
20260831232526 26 41 4.8 11.3 0.00 0.00 0.00 21 1015.5
20260831232027 26 27 6.4 11.3 0.00 0.00 0.00 20 1015.6
20260831231603 26 52 3.2 9.7 0.00 0.00 0.00 21 1015.5
20260831231024 26 0 1.6 9.7 0.00 0.00 0.00 20 1015.7
20260831230525 26 30 3.2 11.3 0.00 0.00 0.00 21 1015.6
20260831230100 26 33 4.8 14.5 0.00 0.00 0.00 20 1015.5
20260831225525 26 93 4.8 14.5 0.00 0.00 0.00 23 1015.6
20260831225027 26 32 6.4 14.5 0.00 0.00 0.00 20 1015.5
20260831224616 26 30 4.8 11.3 0.00 0.00 0.00 19 1015.5
20260831224025 27 43 4.8 11.3 0.00 0.00 0.00 20 1015.5
20260831223524 27 62 6.4 12.9 0.00 0.00 0.00 18 1015.4
20260831223045 27 1 3.2 12.9 0.00 0.00 0.00 18 1015.5
20260831222526 26 330 1.6 6.4 0.00 0.00 0.00 20 1015.5
20260831222029 26 27 3.2 11.3 0.00 0.00 0.00 19 1015.5
20260831221555 26 2 3.2 11.3 0.00 0.00 0.00 20 1015.5
20260831221027 26 96 3.2 14.5 0.00 0.00 0.00 18 1015.7
20260831220525 26 97 6.4 14.5 0.00 0.00 0.00 17 1015.7
20260831220053 26 65 6.4 12.9 0.00 0.00 0.00 21 1015.8
20260831215526 26 28 4.8 9.7 0.00 0.00 0.00 21 1015.9
20260831215025 26 94 4.8 12.9 0.00 0.00 0.00 18 1015.8
20260831214549 26 41 4.8 12.9 0.00 0.00 0.00 20 1016.0
20260831214030 26 60 3.2 11.3 0.00 0.00 0.00 24 1016.0
20260831213525 26 70 4.8 11.3 0.00 0.00 0.00 17 1016.1
20260831213048 26 19 4.8 9.7 0.00 0.00 0.00 22 1016.2
20260831212524 26 333 3.2 9.7 0.00 0.00 0.00 23 1016.3
20260831212031 26 55 4.8 16.1 0.00 0.00 0.00 18 1016.3
20260831211605 26 138 8.0 16.1 0.00 0.00 0.00 22 1016.3
20260831211025 26 236 1.6 6.4 0.00 0.00 0.00 23 1016.4
20260831210529 26 13 0.0 9.7 0.00 0.00 0.00 18 1016.6
20260831210057 26 0 1.6 9.7 0.00 0.00 0.00 18 1016.5
20260831205525 26 349 1.6 8.0 0.00 0.00 0.00 20 1016.6
20260831205027 26 160 3.2 8.0 0.00 0.00 0.00 21 1016.7
20260831204546 26 229 3.2 8.0 0.00 0.00 0.00 22 1016.8
20260831204025 26 227 1.6 8.0 0.00 0.00 0.00 24 1017.0
20260831203525 25 186 3.2 8.0 0.00 0.00 0.00 22 1017.0
20260831203047 25 330 0.0 9.7 0.00 0.00 0.00 20 1016.8
20260831202525 25 63 1.6 9.7 0.00 0.00 0.00 19 1016.9
20260831202026 25 153 0.0 11.3 0.00 0.00 0.00 26 1017.1
20260831201556 25 147 4.8 11.3 0.00 0.00 0.00 19 1017.1
20260831201026 25 257 3.2 11.3 0.00 0.00 0.00 19 1017.3
20260831200526 25 276 4.8 11.3 0.00 0.00 0.00 21 1017.3
20260831200050 25 49 0.0 9.7 0.00 0.00 0.00 26 1017.3
20260831195527 25 148 4.8 9.7 0.00 0.00 0.00 24 1017.5
20260831195027 25 0 1.6 11.3 0.00 0.00 0.00 23 1017.4
20260831194555 24 189 4.8 12.9 0.00 0.00 0.00 22 1017.6
20260831194026 24 111 6.4 12.9 0.00 0.00 0.00 26 1017.6
20260831193524 24 155 3.2 11.3 0.00 0.00 0.00 27 1017.6
20260831193057 24 99 3.2 12.9 0.00 0.00 0.00 26 1017.5
20260831192526 23 229 3.2 12.9 0.00 0.00 0.00 24 1017.6
20260831192025 23 141 4.8 12.9 0.00 0.00 0.00 25 1017.6
20260831191551 23 79 4.8 14.5 0.00 0.00 0.00 25 1017.7
20260831191024 23 135 6.4 14.5 0.00 0.00 0.00 29 1017.8
20260831190524 23 150 4.8 14.5 0.00 0.00 0.00 33 1017.7
20260831190050 23 86 4.8 12.9 0.00 0.00 0.00 31 1017.8
20260831185525 23 59 6.4 12.9 0.00 0.00 0.00 30 1017.9
20260831185026 23 31 3.2 12.9 0.00 0.00 0.00 36 1018.0
20260831184551 23 81 3.2 12.9 0.00 0.00 0.00 31 1018.0
20260831184025 23 24 4.8 12.9 0.00 0.00 0.00 29 1018.1
20260831183528 23 98 3.2 11.3 0.00 0.00 0.00 27 1018.1
20260831183046 22 143 1.6 11.3 0.00 0.00 0.00 36 1018.2
20260831182525 22 169 1.6 11.3 0.00 0.00 0.00 29 1018.2
20260831182029 22 101 3.2 11.3 0.00 0.00 0.00 26 1018.3
20260831181548 22 56 4.8 11.3 0.00 0.00 0.00 27 1018.2
20260831181024 22 127 3.2 8.0 0.00 0.00 0.00 32 1018.3
20260831180526 22 0 1.6 8.0 0.00 0.00 0.00 28 1018.4
20260831180049 22 350 0.0 9.7 0.00 0.00 0.00 34 1018.4
20260831175525 22 77 3.2 9.7 0.00 0.00 0.00 28 1018.4
20260831175029 21 293 0.0 6.4 0.00 0.00 0.00 34 1018.4
20260831174548 21 360 1.6 6.4 0.00 0.00 0.00 29 1018.4
20260831174027 21 339 3.2 6.4 0.00 0.00 0.00 35 1018.4
20260831173524 21 269 1.6 6.4 0.00 0.00 0.00 28 1018.4
20260831173047 21 274 1.6 8.0 0.00 0.00 0.00 28 1018.4
20260831172524 21 262 3.2 8.0 0.00 0.00 0.00 33 1018.5
20260831172029 21 155 1.6 12.9 0.00 0.00 0.00 36 1018.6
20260831171545 20 56 3.2 12.9 0.00 0.00 0.00 44 1018.7
20260831171025 20 58 1.6 9.7 0.00 0.00 0.00 48 1018.7
20260831170529 20 127 3.2 8.0 0.00 0.00 0.00 48 1018.7
20260831170050 19 89 3.2 9.7 0.00 0.00 0.00 51 1018.6
20260831165527 19 131 3.2 9.7 0.00 0.00 0.00 50 1018.7
20260831165024 18 13 1.6 8.0 0.00 0.00 0.00 55 1018.7
20260831164545 18 96 4.8 8.0 0.00 0.00 0.00 53 1018.6
20260831164024 18 51 3.2 8.0 0.00 0.00 0.00 52 1018.6
20260831163526 18 48 3.2 8.0 0.00 0.00 0.00 49 1018.5
20260831163045 18 73 1.6 8.0 0.00 0.00 0.00 53 1018.6
20260831162527 17 56 3.2 8.0 0.00 0.00 0.00 49 1018.6
20260831162027 17 0 0.0 6.4 0.00 0.00 0.00 48 1018.7
20260831161551 17 111 3.2 8.0 0.00 0.00 0.00 47 1018.8
20260831161024 17 15 1.6 8.0 0.00 0.00 0.00 57 1018.7
20260831160524 17 347 0.0 4.8 0.00 0.00 0.00 53 1018.7
20260831160047 17 122 0.0 3.2 0.00 0.00 0.00 55 1018.7
20260831155524 16 0 0.0 3.2 0.00 0.00 0.00 53 1018.8
20260831155028 16 0 0.0 3.2 0.00 0.00 0.00 56 1018.8
20260831154622 16 0 0.0 3.2 0.00 0.00 0.00 61 1018.9
20260831154025 16 0 0.0 3.2 0.00 0.00 0.00 60 1018.8
20260831153527 15 0 0.0 4.8 0.00 0.00 0.00 61 1018.9
20260831153057 15 146 1.6 4.8 0.00 0.00 0.00 60 1018.8
20260831152526 15 0 0.0 3.2 0.00 0.00 0.00 60 1018.8
20260831152027 14 0 0.0 3.2 0.00 0.00 0.00 63 1018.7
20260831151606 13 0 0.0 3.2 0.00 0.00 0.00 63 1018.7
20260831151026 13 345 0.0 3.2 0.00 0.00 0.00 66 1018.7
20260831150530 13 0 0.0 0.0 0.00 0.00 0.00 69 1018.7
20260831150049 13 0 0.0 0.0 0.00 0.00 0.00 72 1018.7
20260831145525 13 0 0.0 0.0 0.00 0.00 0.00 71 1018.7
20260831145030 12 0 0.0 0.0 0.00 0.00 0.00 75 1018.8
20260831144545 12 0 0.0 0.0 0.00 0.00 0.00 74 1018.7
20260831144025 12 0 0.0 4.8 0.00 0.00 0.00 73 1018.5
20260831143523 12 0 0.0 4.8 0.00 0.00 0.00 74 1018.4
20260831143105 11 113 1.6 4.8 0.00 0.00 0.00 75 1018.4
20260831142525 11 0 0.0 4.8 0.00 0.00 0.00 78 1018.3
20260831142029 11 0 1.6 4.8 0.00 0.00 0.00 78 1018.3
20260831141548 10 0 0.0 1.6 0.00 0.00 0.00 81 1018.1
20260831141026 10 0 0.0 3.2 0.00 0.00 0.00 82 1018.1
20260831140525 9 0 0.0 3.2 0.00 0.00 0.00 85 1018.1
20260831140045 8 0 0.0 3.2 0.00 0.00 0.00 85 1018.0
20260831135526 8 193 0.0 3.2 0.00 0.00 0.00 86 1018.0
20260831135025 7 0 0.0 3.2 0.00 0.00 0.00 87 1018.0
20260831134555 7 0 0.0 3.2 0.00 0.00 0.00 87 1018.0
20260831134024 7 193 0.0 1.6 0.00 0.00 0.00 89 1017.8
20260831133524 6 0 0.0 0.0 0.00 0.00 0.00 90 1017.8
20260831133056 6 0 0.0 0.0 0.00 0.00 0.00 90 1017.7
20260831132525 6 0 0.0 0.0 0.00 0.00 0.00 89 1017.7
20260831132032 6 0 0.0 0.0 0.00 0.00 0.00 88 1017.6
20260831131605 6 0 0.0 0.0 0.00 0.00 0.00 89 1017.5
20260831131025 6 0 0.0 0.0 0.00 0.00 0.00 89 1017.4
20260831130527 6 0 0.0 0.0 0.00 0.00 0.00 88 1017.4
20260831130105 5 0 0.0 0.0 0.00 0.00 0.00 88 1017.3
20260831125525 5 0 0.0 0.0 0.00 0.00 0.00 87 1017.3
20260831125025 5 0 0.0 0.0 0.00 0.00 0.00 87 1017.2
20260831124549 5 0 0.0 0.0 0.00 0.00 0.00 87 1017.2
20260831124025 5 0 0.0 0.0 0.00 0.00 0.00 87 1017.2
20260831123525 5 0 0.0 0.0 0.00 0.00 0.00 87 1017.1
20260831123057 5 0 0.0 0.0 0.00 0.00 0.00 87 1017.0
20260831122529 5 0 0.0 0.0 0.00 0.00 0.00 87 1017.0
20260831122027 5 0 0.0 0.0 0.00 0.00 0.00 87 1017.0
20260831121551 5 0 0.0 0.0 0.00 0.00 0.00 87 1017.0
20260831121027 6 0 0.0 0.0 0.00 0.00 0.00 87 1016.9
20260831120527 6 0 0.0 0.0 0.00 0.00 0.00 87 1017.0
20260831120054 6 0 0.0 0.0 0.00 0.00 0.00 86 1016.9
20260831115528 6 0 0.0 0.0 0.00 0.00 0.00 87 1016.9
20260831115028 6 0 0.0 0.0 0.00 0.00 0.00 87 1016.7
20260831114546 6 0 0.0 0.0 0.00 0.00 0.00 87 1016.9
20260831114025 6 0 0.0 0.0 0.00 0.00 0.00 87 1017.0
20260831113525 6 0 0.0 1.6 0.00 0.00 0.00 87 1016.8
20260831113051 6 0 0.0 4.8 0.00 0.00 0.00 88 1016.7
20260831112527 6 186 0.0 9.7 0.00 0.00 0.00 87 1016.7
20260831112029 6 186 3.2 9.7 0.00 0.00 0.00 87 1016.6
20260831111545 6 179 1.6 9.7 0.00 0.00 0.00 87 1016.7
20260831111032 6 0 0.0 3.2 0.00 0.00 0.00 87 1016.6
20260831110531 6 0 0.0 3.2 0.00 0.00 0.00 88 1016.5
20260831110047 6 0 0.0 1.6 0.00 0.00 0.00 87 1016.5
20260831105530 7 0 0.0 3.2 0.00 0.00 0.00 88 1016.4
20260831105026 7 256 0.0 3.2 0.00 0.00 0.00 88 1016.4
20260831104555 7 0 0.0 4.8 0.00 0.00 0.00 88 1016.5
20260831104025 7 254 1.6 4.8 0.00 0.00 0.00 88 1016.5
20260831103525 7 256 0.0 4.8 0.00 0.00 0.00 88 1016.6
20260831103054 7 217 0.0 3.2 0.00 0.00 0.00 87 1016.4
20260831102529 7 0 0.0 3.2 0.00 0.00 0.00 88 1016.3
20260831102028 7 0 0.0 1.6 0.00 0.00 0.00 88 1016.3
20260831101558 7 0 0.0 3.2 0.00 0.00 0.00 88 1016.4
20260831101028 7 0 0.0 4.8 0.00 0.00 0.00 88 1016.3
20260831100529 7 217 1.6 4.8 0.00 0.00 0.00 88 1016.2
20260831095528 7 302 0.0 3.2 0.00 0.00 0.00 87 1016.1
20260831095031 7 0 0.0 3.2 0.00 0.00 0.00 87 1016.0
20260831094559 7 0 0.0 4.8 0.00 0.00 0.00 87 1015.9
20260831094029 7 1 1.6 4.8 0.00 0.00 0.00 87 1016.0
20260831093523 7 0 0.0 0.0 0.00 0.00 0.00 87 1015.9
20260831093055 7 0 0.0 0.0 0.00 0.00 0.00 87 1016.0
20260831092529 7 0 0.0 0.0 0.00 0.00 0.00 86 1016.0
20260831092032 7 0 0.0 4.8 0.00 0.00 0.00 85 1015.9
20260831091548 7 0 0.0 4.8 0.00 0.00 0.00 86 1016.0
20260831091030 8 159 0.0 4.8 0.00 0.00 0.00 86 1016.0
20260831090527 8 0 0.0 3.2 0.00 0.00 0.00 86 1015.8
20260831090050 8 0 0.0 4.8 0.00 0.00 0.00 85 1015.8
20260831085528 8 0 0.0 6.4 0.00 0.00 0.00 85 1015.8
20260831085028 8 341 3.2 6.4 0.00 0.00 0.00 85 1015.8
20260831084549 8 0 0.0 3.2 0.00 0.00 0.00 85 1015.6
20260831084028 8 0 1.6 3.2 0.00 0.00 0.00 85 1015.6
20260831083525 8 0 0.0 4.8 0.00 0.00 0.00 85 1015.5
20260831083046 8 0 0.0 4.8 0.00 0.00 0.00 85 1015.4
20260831082530 8 186 1.6 4.8 0.00 0.00 0.00 84 1015.4
20260831082024 8 186 3.2 4.8 0.00 0.00 0.00 83 1015.4
20260831081551 8 0 0.0 4.8 0.00 0.00 0.00 81 1015.4
20260831081025 9 0 0.0 6.4 0.00 0.00 0.00 81 1015.4
20260831080528 9 0 3.2 6.4 0.00 0.00 0.00 81 1015.4
20260831080046 10 0 0.0 3.2 0.00 0.00 0.00 83 1015.4
20260831075525 10 0 0.0 3.2 0.00 0.00 0.00 82 1015.2
20260831075031 10 0 0.0 3.2 0.00 0.00 0.00 82 1015.2
20260831074557 10 205 0.0 3.2 0.00 0.00 0.00 82 1015.2
20260831074029 10 205 0.0 3.2 0.00 0.00 0.00 82 1015.4
20260831073526 10 205 0.0 3.2 0.00 0.00 0.00 82 1015.4
20260831073051 10 205 0.0 3.2 0.00 0.00 0.00 82 1015.4
20260831072526 10 205 0.0 3.2 0.00 0.00 0.00 81 1015.3
20260831072026 10 205 0.0 3.2 0.00 0.00 0.00 81 1015.2
20260831071605 10 205 1.6 3.2 0.00 0.00 0.00 81 1015.3
20260831071026 10 205 0.0 3.2 0.00 0.00 0.00 80 1015.2
20260831070528 10 205 0.0 3.2 0.00 0.00 0.00 79 1015.3
20260831070047 11 205 0.0 3.2 0.00 0.00 0.00 78 1015.3
20260831065530 11 0 0.0 3.2 0.00 0.00 0.00 78 1015.2
20260831065032 11 0 1.6 4.8 0.00 0.00 0.00 78 1015.2
20260831064605 11 205 0.0 4.8 0.00 0.00 0.00 78 1015.2
20260831064031 11 204 1.6 6.4 0.00 0.00 0.00 78 1015.1
20260831063527 11 200 1.6 6.4 0.00 0.00 0.00 77 1015.1
20260831063052 11 198 3.2 4.8 0.00 0.00 0.00 77 1015.2
20260831062531 11 241 0.0 4.8 0.00 0.00 0.00 77 1015.2
20260831062025 11 259 1.6 4.8 0.00 0.00 0.00 77 1015.2
20260831061548 12 181 3.2 4.8 0.00 0.00 0.00 77 1015.2
20260831061025 12 239 1.6 4.8 0.00 0.00 0.00 76 1015.2
20260831060528 12 225 1.6 4.8 0.00 0.00 0.00 76 1015.1
20260831060104 12 226 1.6 4.8 0.00 0.00 0.00 75 1015.2
20260831055535 12 0 0.0 0.0 0.00 0.00 0.00 74 1015.2
20260831055027 12 0 0.0 0.0 0.00 0.00 0.00 74 1015.2
20260831054547 12 0 0.0 0.0 0.00 0.00 0.00 74 1015.2
20260831054030 12 0 0.0 3.2 0.00 0.00 0.00 75 1015.1
20260831053527 12 0 0.0 3.2 0.00 0.00 0.00 75 1015.1
20260831053100 12 221 1.6 3.2 0.00 0.00 0.00 75 1015.0
20260831052525 12 221 0.0 4.8 0.00 0.00 0.00 74 1015.2
20260831052027 12 0 0.0 4.8 0.00 0.00 0.00 73 1015.2
20260831051557 12 210 0.0 4.8 0.00 0.00 0.00 73 1015.0
20260831051027 12 210 0.0 6.4 0.00 0.00 0.00 72 1015.0
20260831050528 12 210 1.6 6.4 0.00 0.00 0.00 71 1015.0
20260831050055 12 0 0.0 3.2 0.00 0.00 0.00 72 1015.0
20260831045527 12 0 0.0 3.2 0.00 0.00 0.00 72 1015.1
20260831045028 12 43 1.6 3.2 0.00 0.00 0.00 73 1015.0
20260831044549 12 35 0.0 1.6 0.00 0.00 0.00 72 1014.9
20260831044029 13 0 0.0 1.6 0.00 0.00 0.00 72 1015.0
20260831043527 13 0 0.0 1.6 0.00 0.00 0.00 71 1014.9
20260831043053 13 0 0.0 1.6 0.00 0.00 0.00 71 1015.0
20260831042528 13 0 0.0 3.2 0.00 0.00 0.00 71 1015.0
20260831042027 13 0 0.0 3.2 0.00 0.00 0.00 72 1015.0
20260831041550 13 35 0.0 3.2 0.00 0.00 0.00 70 1015.0
20260831041030 13 0 0.0 3.2 0.00 0.00 0.00 69 1015.0